Regional Weather Roundup
Issued by NWS

Home | Current Version | Previous Version | Text Only | Print | Product List | Glossary On
Versions: 1 2 3 4 5 6 7 8 9 10 11 12 13 14 15 16 17 18 19 20 21 22 23 24 25 26 27 28 29 30 31 32 33 34 35 36 37 38 39 40 41 42 43 44 45 46 47 48 49 50
000
ASUS43 KOAX 291102
RWRNE

WEATHER ROUNDUP FOR NEBRASKA
NATIONAL WEATHER SERVICE OMAHA NE
600 AM CDT SUN MAR 29 2015

NOTES: SATELLITE DATA IS BEING USED TO AUGMENT CLOUD COVER ABOVE
       12000 FEET.
       "FAIR" INDICATES FEW OR NO CLOUDS BELOW 12,000 FEET WITH NO
       SIGNIFICANT WEATHER AND/OR OBSTRUCTIONS TO VISIBILITY.

  * THESE STATIONS DO NOT REPORT WEATHER SUCH AS RAIN...SNOW OR FOG.

NEZ001>004-019>022-054>056-291200-
NEBRASKA PANHANDLE

CITY           SKY/WX    TMP DP  RH WIND       PRES   REMARKS
SCOTTSBLUFF    CLEAR     48  24  39 NW33G46   30.08R
ALLIANCE       CLEAR     47  25  42 NW28G41   30.08R
CHADRON        CLOUDY    47  32  56 NW20G31   30.14R
KIMBALL        CLEAR     42  15  32 N16       30.12R
SIDNEY         CLEAR     43  17  35 NW12      30.11R
$$

NEZ057>060-069>072-079>082-291200-
SOUTHWEST NEBRASKA

CITY           SKY/WX    TMP DP  RH WIND       PRES   REMARKS
NORTH PLATTE   CLEAR     42  32  67 W9        29.99R
IMPERIAL       CLEAR     48  31  51 NW12      30.05R
MCCOOK         PTCLDY    54  31  41 NW17      29.96R
$$

NEZ005>010-023>029-035>040-094-291200-
NORTH CENTRAL NEBRASKA

CITY           SKY/WX    TMP DP  RH WIND       PRES   REMARKS
VALENTINE      CLEAR     42  33  70 W14       29.94R
AINSWORTH      CLEAR     47  33  57 W14       29.92R
BROKEN BOW     PTCLDY    47  33  58 W9        29.92R
ORD            MOCLDY    39  32  76 NW8       29.88R WCI  33
$$

NEZ041-046>049-061>064-073>077-083>087-291200-
SOUTH CENTRAL NEBRASKA

CITY           SKY/WX    TMP DP  RH WIND       PRES   REMARKS
GRAND ISLAND   MOCLDY    42  36  79 W7        29.89R
AURORA         MOCLDY    41  37  87 SW6       29.88R
HASTINGS       FAIR      43  37  79 N6        29.88R
HEBRON         CLOUDY    46  39  76 W3        29.89R
KEARNEY *      MOCLDY    52  36  54 N13       29.91R
$$

NEZ011>018-030>034-042>045-291200-
NORTHEAST NEBRASKA

CITY           SKY/WX    TMP DP  RH WIND       PRES   REMARKS
NORFOLK        PTCLDY    46  37  71 W10       29.82S
ALBION         MOCLDY    46  35  65 NW5G20    29.86R
BLAIR          MOCLDY    41  34  76 S15       29.84F
COLUMBUS *     PTCLDY    36  27  69 CALM      29.86S
TEKAMAH        MOCLDY    40  32  73 SE15G31   29.84F WCI  32
$$

NEZ050>053-065>068-078-088>093-291200-
SOUTHEAST NEBRASKA

CITY           SKY/WX    TMP DP  RH WIND       PRES   REMARKS
LINCOLN        CLOUDY    42  35  76 SE6       29.89S
OMAHA EPPLEY   MOCLDY    43  34  70 S16       29.87F
BEATRICE       MOCLDY    44  37  78 S9        29.88R
FALLS CITY     CLOUDY    43  35  73 S10G23    29.89R
NEBRASKA CITY  CLOUDY    40  34  78 CALM      29.91R
PLATTSMOUTH    MOCLDY    40  33  77 S6        29.91R
$$

NEZ044-045-051>053-067-291200-
OMAHA AREA

CITY           SKY/WX    TMP DP  RH WIND       PRES   REMARKS
OMAHA EPPLEY   MOCLDY    43  34  70 S16       29.87F
BLAIR          MOCLDY    41  34  76 S15       29.84F
OFFUTT AFB     MOCLDY    41  34  76 S7        29.88F
PLATTSMOUTH    MOCLDY    40  33  77 S6        29.91R
WAHOO          FAIR      38  32  79 CALM      29.87F
$$



USA.gov is the U.S. government's official web portal to all federal, state and local government web resources and services.